Weather in Besovets

Russia / Republic of Karelia     61°51′53″N   34°09′24″E
temp.,
°C
wind,
m/s
gust,
m/s
humid.,
%
clouds,
%
prec.,
mm/h
press.,
hPa
HPBL,
m
3 august, tue
tue300:00+16e51392100 0.9 997645
03:00+15ese51297100 5.4 993632
06:00+16se31099100 2.2 989620
09:00+16ssw51197100 3.3 988884
12:00+14sw81893100 0.5 9911388
15:00+17sw7167629 0.7 9961350
18:00+17sw714725 0.1 9971351
21:00+13sw5128738 0.1 999979
4 august, wed
wed400:00+12wsw61279100 0.1 10011000
03:00+11wsw51183100 0.1 10031034
06:00+12wsw511735 0.0 10051118
09:00+15wsw612540 0.0 10061642
12:00+18w711387 0.0 10082306
15:00+20w6103357 0.0 10092766
18:00+18wnw493973 0.0 10112455
21:00+13w115878 0.0 101413
5 august, thu
thu500:00+11sw11697 0.0 101513
03:00+10sw227771 0.0 101635
06:00+12wsw1367100 0.0 1017123
09:00+15w1259100 0.0 1017314
12:00+19sw124034 0.0 10171923
15:00+16ese125790 0.0 1018399
18:00+14ne1273100 0.3 101871
21:00+13se227497 0.3 101938
6 august, fri
fri600:00+13nne117382 0.0 101911
03:00+12ene117797 0.0 101914
06:00+13nne1377100 0.0 1020106
09:00+17ene345736 0.0 1020640
12:00+18e464711 0.0 10201376
15:00+20e45368 0.0 10202295
18:00+18e35465 0.0 10201017
21:00+13ene227370 0.0 102118
7 august, sat
sat700:00+13ene26776 0.0 1021170
03:00+11ene27855 0.0 1022172
06:00+12ene38740 0.0 1023425
09:00+15e47620 0.0 1023717
12:00+18e58444 0.0 10221665
15:00+19ene583789 0.0 10221902
18:00+19ene484698 0.0 10211779
21:00+17e51253100 0.0 1021677